• In Hungary
  • List of Countries
  • For 7 days
  • Water Temperature
  • Satellite Maps
  • Weather Map
  • News
  • Weather Widgets
  • user-avatar
    Login

    Hourly Weather Christchurch

    Today, 19 January, Friday

    Time Temperature Precipitation Wind Pressure Humidity
    00:00 +18°C° 0 mm 3 mps 758 mmHg 95%
    01:00 +18°C° 0 mm 3 mps 758 mmHg 94%
    02:00 +18°C° 0 mm 2 mps 759 mmHg 94%
    03:00 +17°C° 0 mm 2 mps 759 mmHg 93%
    04:00 +18°C° 0 mm 2 mps 759 mmHg 93%
    05:00 +18°C° 0 mm 2 mps 759 mmHg 92%
    06:00 +19°C° 0 mm 1 mps 760 mmHg 90%
    07:00 +20°C° 0 mm 1 mps 760 mmHg 86%
    08:00 +21°C° 0 mm 1 mps 760 mmHg 81%
    09:00 +23°C° 0 mm 1 mps 760 mmHg 76%
    10:00 +24°C° 0 mm 2 mps 760 mmHg 73%
    11:00 +25°C° 0 mm 3 mps 760 mmHg 70%
    12:00 +26°C° 0 mm 4 mps 760 mmHg 67%
    13:00 +26°C° 0 mm 4 mps 760 mmHg 67%
    14:00 +26°C° 0 mm 5 mps 760 mmHg 67%
    15:00 +26°C° 0 mm 5 mps 759 mmHg 67%
    16:00 +25°C° 0 mm 5 mps 759 mmHg 70%
    17:00 +25°C° 0 mm 5 mps 759 mmHg 73%
    18:00 +23°C° 0 mm 5 mps 759 mmHg 77%
    19:00 +22°C° 0 mm 5 mps 759 mmHg 81%
    20:00 +20°C° 0 mm 5 mps 759 mmHg 86%
    21:00 +19°C° 0 mm 5 mps 759 mmHg 90%
    22:00 +19°C° 0 mm 4 mps 759 mmHg 89%
    23:00 +19°C° 0 mm 4 mps 759 mmHg 88%

    Tomorrow, 20 January, Saturday

    Time Temperature Precipitation Wind Pressure Humidity
    00:00 +18°C° 0 mm 4 mps 759 mmHg 87%
    01:00 +18°C° 0 mm 3 mps 758 mmHg 85%
    02:00 +18°C° 0 mm 3 mps 758 mmHg 83%
    03:00 +18°C° 0 mm 3 mps 758 mmHg 81%
    04:00 +18°C° 0 mm 3 mps 758 mmHg 80%
    05:00 +18°C° 0 mm 3 mps 758 mmHg 79%
    06:00 +19°C° 0 mm 3 mps 758 mmHg 78%
    07:00 +21°C° 0 mm 3 mps 758 mmHg 71%
    08:00 +24°C° 0 mm 3 mps 759 mmHg 64%
    09:00 +27°C° 0 mm 3 mps 759 mmHg 57%
    10:00 +28°C° 0 mm 3 mps 759 mmHg 53%
    11:00 +29°C° 0 mm 3 mps 759 mmHg 49%
    12:00 +31°C° 0 mm 2 mps 759 mmHg 44%
    13:00 +31°C° 0 mm 3 mps 759 mmHg 45%
    14:00 +31°C° 0 mm 3 mps 759 mmHg 45%
    15:00 +32°C° 0 mm 4 mps 759 mmHg 46%
    16:00 +30°C° 0 mm 4 mps 759 mmHg 51%
    17:00 +29°C° 0 mm 4 mps 759 mmHg 55%
    18:00 +27°C° 0 mm 4 mps 759 mmHg 60%
    19:00 +25°C° 0 mm 4 mps 760 mmHg 67%
    20:00 +22°C° 0 mm 3 mps 760 mmHg 75%
    21:00 +20°C° 0 mm 2 mps 761 mmHg 82%
    22:00 +20°C° 0 mm 2 mps 761 mmHg 83%
    23:00 +19°C° 0 mm 2 mps 761 mmHg 84%

    Day after tomorrow, 21 January, Sunday

    Time Temperature Precipitation Wind Pressure Humidity
    00:00 +19°C° 0 mm 2 mps 762 mmHg 84%
    01:00 +20°C° 0 mm 1 mps 761 mmHg 85%
    02:00 +20°C° 0 mm 1 mps 761 mmHg 86%
    03:00 +20°C° 0 mm 1 mps 761 mmHg 87%
    04:00 +19°C° 0 mm 1 mps 762 mmHg 88%
    05:00 +19°C° 0 mm 1 mps 762 mmHg 89%
    06:00 +19°C° 0 mm 1 mps 762 mmHg 89%
    07:00 +21°C° 0 mm 1 mps 762 mmHg 83%
    08:00 +23°C° 0 mm 1 mps 763 mmHg 76%
    09:00 +24°C° 0 mm 1 mps 763 mmHg 70%
    10:00 +25°C° 0 mm 2 mps 763 mmHg 67%
    11:00 +26°C° 0 mm 2 mps 762 mmHg 65%
    12:00 +27°C° 0 mm 3 mps 762 mmHg 63%
    13:00 +27°C° 0 mm 3 mps 762 mmHg 64%
    14:00 +27°C° 0 mm 4 mps 761 mmHg 65%
    15:00 +27°C° 0 mm 4 mps 761 mmHg 66%
    16:00 +26°C° 0.3 mm 4 mps 761 mmHg 71%
    17:00 +25°C° 0.3 mm 4 mps 760 mmHg 76%
    18:00 +24°C° 0.3 mm 3 mps 760 mmHg 80%
    19:00 +22°C° 0.2 mm 3 mps 760 mmHg 85%
    20:00 +20°C° 0.2 mm 2 mps 761 mmHg 90%
    21:00 +19°C° 0.2 mm 2 mps 761 mmHg 94%
    22:00 +19°C° 0 mm 2 mps 761 mmHg 93%
    23:00 +19°C° 0 mm 2 mps 760 mmHg 92%

    22 January, Monday

    Time Temperature Precipitation Wind Pressure Humidity
    00:00 +20°C° 0 mm 1 mps 760 mmHg 91%
    01:00 +19°C° 0 mm 1 mps 760 mmHg 90%
    02:00 +19°C° 0 mm 1 mps 759 mmHg 89%
    03:00 +19°C° 0 mm 1 mps 759 mmHg 88%
    04:00 +19°C° 0 mm 1 mps 759 mmHg 87%
    05:00 +19°C° 0 mm 1 mps 759 mmHg 86%
    06:00 +19°C° 0 mm 1 mps 759 mmHg 85%
    07:00 +21°C° 0 mm 1 mps 759 mmHg 81%
    08:00 +22°C° 0 mm 1 mps 759 mmHg 76%
    09:00 +23°C° 0 mm 1 mps 759 mmHg 72%
    10:00 +24°C° 0 mm 1 mps 759 mmHg 69%
    11:00 +25°C° 0 mm 1 mps 758 mmHg 66%
    12:00 +26°C° 0 mm 1 mps 758 mmHg 63%
    13:00 +27°C° 0 mm 2 mps 758 mmHg 63%
    14:00 +27°C° 0 mm 2 mps 757 mmHg 64%
    15:00 +27°C° 0 mm 3 mps 757 mmHg 65%
    16:00 +26°C° 0 mm 3 mps 757 mmHg 67%
    17:00 +26°C° 0 mm 3 mps 757 mmHg 70%
    18:00 +25°C° 0 mm 3 mps 757 mmHg 73%
    19:00 +24°C° 0 mm 3 mps 757 mmHg 77%
    20:00 +23°C° 0 mm 2 mps 758 mmHg 81%
    21:00 +21°C° 0 mm 2 mps 758 mmHg 85%
    22:00 +20°C° 0.1 mm 2 mps 758 mmHg 87%
    23:00 +21°C° 0.1 mm 1 mps 758 mmHg 89%

    23 January, Tuesday

    Time Temperature Precipitation Wind Pressure Humidity
    00:00 +20°C° 0.1 mm 1 mps 759 mmHg 91%
    01:00 +20°C° 0 mm 1 mps 758 mmHg 92%
    02:00 +18°C° 0 mm 2 mps 758 mmHg 94%
    03:00 +18°C° 0 mm 2 mps 758 mmHg 95%
    04:00 +19°C° 0 mm 1 mps 758 mmHg 94%
    05:00 +19°C° 0 mm 1 mps 759 mmHg 93%
    06:00 +19°C° 0 mm 1 mps 759 mmHg 93%
    07:00 +21°C° 0 mm 1 mps 759 mmHg 85%
    08:00 +23°C° 0 mm 1 mps 759 mmHg 76%
    09:00 +25°C° 0 mm 1 mps 759 mmHg 68%
    10:00 +26°C° 0 mm 1 mps 759 mmHg 64%
    11:00 +28°C° 0 mm 2 mps 759 mmHg 61%
    12:00 +29°C° 0 mm 3 mps 759 mmHg 57%
    13:00 +29°C° 0.1 mm 3 mps 759 mmHg 58%
    14:00 +29°C° 0.1 mm 4 mps 758 mmHg 59%
    15:00 +29°C° 0.1 mm 4 mps 758 mmHg 60%
    16:00 +28°C° 0 mm 4 mps 758 mmHg 63%
    17:00 +27°C° 0 mm 4 mps 758 mmHg 66%
    18:00 +26°C° 0 mm 4 mps 758 mmHg 69%
    19:00 +25°C° 0 mm 4 mps 758 mmHg 76%
    20:00 +22°C° 0 mm 4 mps 758 mmHg 82%
    21:00 +21°C° 0 mm 4 mps 758 mmHg 89%
    22:00 +20°C° 0 mm 4 mps 758 mmHg 88%
    23:00 +20°C° 0 mm 4 mps 758 mmHg 88%

    24 January, Wednesday

    Time Temperature Precipitation Wind Pressure Humidity
    00:00 +20°C° 0 mm 4 mps 758 mmHg 87%
    01:00 +20°C° 0 mm 4 mps 758 mmHg 85%
    02:00 +20°C° 0 mm 3 mps 757 mmHg 83%
    03:00 +20°C° 0 mm 3 mps 757 mmHg 80%
    04:00 +20°C° 0 mm 3 mps 757 mmHg 78%
    05:00 +20°C° 0 mm 3 mps 757 mmHg 76%
    06:00 +20°C° 0 mm 3 mps 758 mmHg 74%
    07:00 +22°C° 0 mm 3 mps 758 mmHg 66%
    08:00 +26°C° 0 mm 2 mps 758 mmHg 58%
    09:00 +29°C° 0 mm 2 mps 758 mmHg 50%
    10:00 +31°C° 0 mm 2 mps 758 mmHg 44%
    11:00 +34°C° 0 mm 2 mps 758 mmHg 38%
    12:00 +36°C° 0 mm 2 mps 758 mmHg 33%
    13:00 +35°C° 0 mm 2 mps 758 mmHg 34%
    14:00 +35°C° 0 mm 3 mps 758 mmHg 36%
    15:00 +34°C° 0 mm 4 mps 758 mmHg 38%
    16:00 +33°C° 0.1 mm 4 mps 758 mmHg 42%
    17:00 +32°C° 0.1 mm 4 mps 759 mmHg 47%
    18:00 +29°C° 0.1 mm 4 mps 759 mmHg 51%
    19:00 +27°C° 0 mm 4 mps 760 mmHg 61%
    20:00 +23°C° 0 mm 4 mps 761 mmHg 71%
    21:00 +21°C° 0 mm 5 mps 761 mmHg 81%
    22:00 +20°C° 0 mm 4 mps 762 mmHg 85%
    23:00 +19°C° 0 mm 3 mps 762 mmHg 89%
    Show more